Other Public Products
Issued by NWS Grand Forks, ND

Home | Current Version | Previous Version | Text Only | Print | Product List | Glossary Off
Versions: 1 2 3 4 5 6 7 8 9 10 11 12 13 14 15 16 17 18 19 20 21 22 23 24 25 26 27 28 29 30 31 32 33 34 35 36 37 38 39 40 41 42 43 44 45 46 47 48 49 50

181
FPUS83 KFGF 081131
OPUFGF
PRAIRIE TO PINES WEATHER ROUNDUP
NATIONAL WEATHER SERVICE EASTERN NORTH DAKOTA/GRAND FORKS ND
500 AM CST THU DEC 08 2016

 **SATELLITE DATA USED TO AUGMENT SKY COVER AT AUTOMATED STATIONS**
 *****  WEATHER ACROSS EASTERN NORTH DAKOTA  *****

CITY           SKY/WX    TMP DP  RH WIND       PRES   REMARKS
GRAND FORKS    MIX PCPN  17  11  77 NW23      30.38R WCI  -1
GRAND FORKS AF FLURRIES  16   9  73 N17G24    30.40R WCI   0
GRAND CITY NWS NOT AVBL
BUXTON           N/A     36  35  96 NW20        N/A
DEVILS LAKE    FLURRIES  10   6  84 NW18      30.43R WCI  -8
FARGO          CLOUDY    16  10  77 NW21G29   30.38R WCI  -1
WAHPETON ARPT  CLOUDY    14  10  85 NW21G26   30.38R WCI  -4
$$

 *****  WEATHER ACROSS CENTRAL AND WESTERN NORTH DAKOTA  *****

CITY           SKY/WX    TMP DP  RH WIND       PRES   REMARKS
JAMESTOWN      CLOUDY     5   1  83 NW26      30.44R WCI -18
BISMARCK       CLOUDY     4  -1  80 NW21G29   30.55S WCI -17
MINOT          CLOUDY     3  -2  79 NW21      30.54R HAZE    WCI -18
MINOT AFB      CLOUDY     2  -3  79 NW20      30.53R WCI -19
GARRISON         N/A      1  -4  79 NW29G36   30.52R WCI -24
WILLISTON      CLOUDY     0  -6  76 W9        30.63S WCI -15
DICKINSON      PTCLDY    -7 -12  79 NW16      30.52R WCI -29
HETTINGER      CLEAR     -5 -11  75 NW16      30.53F WCI -27
$$

 *****  OTHER OBSERVATIONS NORTHEAST NORTH DAKOTA  *****

CITY           SKY/WX    TMP DP  RH WIND       PRES   REMARKS
WALHALLA       LGT SNOW  14  14 100 NW21G30   30.43R WCI  -4
LANGDON        LGT SNOW  10   9  92 NW21G28   30.39R WCI  -9
CAVALIER       LGT SNOW  14  10  85 NW20G26   30.41R WCI  -3
GRAFTON        FLURRIES  16  12  86 NW23      30.41R WCI  -2
CANDO          CLOUDY     9   5  85 NW15G21   30.48R WCI  -8
FORT TOTTEN      N/A      8   6  92 NW9       29.95S WCI  -5
ROLLA          CLOUDY     5   1  85 NW20      30.44R WCI -15
RUGBY            N/A      0  -4  85 NW20      30.50R WCI -22
 ***** THE ABOVE OBSERVATIONS ARE NON NWS ARE NOT QUALITY
        CONTROLLED AND MAY MIS-REPORT RAIN FOR SNOW...
$$

 *****  OTHER OBSERVATIONS SOUTHEAST NORTH DAKOTA *****

CITY           SKY/WX    TMP DP  RH WIND       PRES   REMARKS
COOPERSTOWN    LGT SNOW  10   7  85 NW18G26   30.41R WCI  -8
VALLEY CITY    LGT SNOW   7   5  92 NW20G28   30.43R WCI -13
OAKES          NOT AVBL
GWINNER        CLOUDY    10   7  85 NW21G29   30.42R WCI  -9
SHEYENNE NWR     N/A     11   4  74 NW14      29.95S WCI  -5
BUFFALO          N/A     10   5  81 NW16        N/A  WCI  -7
WYNDMERE         N/A     12   9  85 NW20        N/A  WCI  -6
 ***** THE ABOVE OBSERVATIONS ARE NON NWS ARE NOT QUALITY
       CONTROLLED AND MAY MIS-REPORT RAIN FOR SNOW...
$$

  *****  WEATHER ACROSS NORTHERN MINNESOTA  *****

CITY           SKY/WX    TMP DP  RH WIND       PRES   REMARKS
FLAG ISLAND    CLOUDY    19  16  86 N21       30.24R WCI   3
WARROAD        FLURRIES  16  12  86 NW14      30.26R WCI   1
ROSEAU         FLURRIES  18  12  79 NW10      30.28R WCI   6
HALLOCK          N/A     16  12  86 NW22G30   30.36R WCI  -2
THF RVR FALLS  LGT SNOW  16  12  86 NW22      30.31R FOG     WCI  -2
HALSTAD          N/A     16  12  86 NW21        N/A  WCI  -2
FOSSTON        LGT SNOW  16  12  86 NW18      30.28R WCI  -1
BAUDETTE       LGT SNOW  20  16  84 N14       30.20R FOG     WCI   7
WASKISH        LGT SNOW  18  16  93 NW12      30.21R WCI   5
CROOKSTON      LGT SNOW  16  12  86 N24       30.36R WCI  -3
$$
  *****  WEATHER ACROSS CENTRAL AND WEST MINNESOTA  *****

CITY           SKY/WX    TMP DP  RH WIND       PRES   REMARKS
BEMIDJI        LGT SNOW  16  13  88 NW14      30.22R WCI   2
PARK RAPIDS    LGT SNOW  18  11  74 NW16      30.21R WCI   3
WADENA         LGT SNOW  18  12  79 NW14G21   30.23R WCI   4
DETROIT LAKES  LGT SNOW  18  14  86 NW21G30   30.29R WCI   1
MOORHEAD       MIX PCPN  16  12  86 NW22      30.37R WCI  -2
FERGUS FALLS   LGT SNOW  16  10  79 NW23      30.37R WCI  -2
ELBOW LAKE     LGT SNOW  13  11  92 NW20G26   30.32R WCI  -5
MORRIS MN      LGT SNOW  16  10  79 NW24G36   30.32R WCI  -3
STAPLES        CLOUDY    18  12  79 NW20G25   30.22R WCI   1
WHEATON        LGT SNOW  14  10  85 NW20G31   30.40R WCI  -3
$$
  *****  WEATHER ELSEWHERE ACROSS MINNESOTA  *****

CITY           SKY/WX    TMP DP  RH WIND       PRES   REMARKS
DULUTH         FLURRIES  21  17  84 NW13      30.05R WCI   9
INTRNTL FALLS  LGT SNOW  19  15  84 NW10      30.15R FOG     WCI   7
ELY            FLURRIES  19  16  86 NW7       30.05R WCI  10
CLOQUET        LGT SNOW  19  16  86 W13G18    30.09R WCI   7
BRAINERD       CLOUDY    18  13  80 NW15      30.19R WCI   4
HIBBING        LGT SNOW  18  14  84 NW20      30.10R FOG     WCI   2
ALEXANDRIA     CLOUDY    16  12  84 NW18G26   30.25R WCI   0
SAINT CLOUD    MOCLDY    17  13  84 NW13      30.20R WCI   4
MINNEAPOLIS    MOCLDY    17  11  77 W14       30.20R WCI   3
$$

  *****  WEATHER ACROSS SOUTH DAKOTA  *****

CITY           SKY/WX    TMP DP  RH WIND       PRES   REMARKS
SIOUX FALLS    CLEAR      8   3  80 NW21G31   30.42R WCI -12
BROOKINGS      FLURRIES   7   2  80 NW18G25   30.38R WCI -12
WATERTOWN      LGT SNOW   8   3  80 NW17G26   30.37R WCI -10
HURON          PTCLDY     7   2  80 NW22G29   30.51R WCI -14
SISSETON         N/A     11   6  81 NW25G32   30.38R WCI -10
ABERDEEN       CLOUDY     9   2  73 NW20G30   30.48S WCI -10
MITCHELL       PTCLDY     8   2  76 NW20      30.53R WCI -11
PIERRE         CLOUDY     7   1  76 NW25      30.55S WCI -15
MOBRIDGE       CLOUDY     6  -3  66 NW18G25   30.52R WCI -13
RAPID CITY     CLEAR     -3  -9  75 NW8       30.52S WCI -18
$$

  *****  SOME WEATHER IN NEARBY STATES *****

CITY           SKY/WX    TMP DP  RH WIND       PRES   REMARKS
GLASGOW MT     CLOUDY    -2  -8  76 NW9       30.64F WCI -18
GREAT FALLS MT CLOUDY    -3  -8  79 E7        30.49F WCI -16
CHEYENNE WY    CLOUDY   -14 -19  79 W8        30.30F WCI -31
SCOTTSBLUFF NE CLOUDY    -8 -13  78 NW8       30.51S WCI -24
OMAHA NE       PTCLDY    12   4  70 NW20      30.52R WCI  -6
DES MOINES IA  PTCLDY    13   4  67 NW18      30.41R WCI  -4
DAVENPORT IA   PTCLDY    15   7  70 W25G32    30.29R WCI  -4
CHICAGO IL     FLURRIES  21  12  68 W20G28    30.16R WCI   6
EAU CLAIRE WI  LGT SNOW  17  12  80 W13       30.12R WCI   4
LA CROSSE WI   CLOUDY    18  10  71 W12       30.19R WCI   5
$$

  *****  SOME NATIONAL WEATHER *****

CITY           SKY/WX    TMP DP  RH WIND       PRES   REMARKS
LA GUARDIA NY  MOCLDY    44  29  55 W8        29.97S
RALEIGH NC     CLOUDY    49  45  86 CALM      30.02S
ATLANTA GA     MOCLDY    41  37  86 NW10      30.14R
NEW ORLEANS LA CLOUDY    57  54  89 NE7       30.20R
OKLAHOMA CITY  MOCLDY    23  16  74 N14       30.60R WCI  11
ALBUQUERQUE NM CLOUDY    25  13  60 E21G26    30.29R WCI  11
SALT LAKE CITY MOCLDY    21  10  62 CALM      30.30S
LOS ANGELES CA PTCLDY    52  45  77 E3        30.17R
BOISE ID       MOCLDY    17  10  74 S7        30.31F WCI   8
SEATTLE WA     CLEAR     32  14  47 E16G24    30.20F WCI  21
$$

*** WEATHER ACROSS MANITOBA...SASKATCHEWAN AND ONTARIO ***
                ***ONTARIO***

CITY           SKY/WX    TMP DP  RH WIND       PRES   REMARKS
GERALDTON      LGT SNOW  19  16  86 NW10      29.84R DRFTSNOWWCI   8
THUNDER BAY    CLOUDY    25  18  74 NW10G18   29.97R WCI  15
SIOUX LOOKOUT  LGT SNOW  18  14  86 N13G21    30.10R DRFTSNOWWCI   4
TORONTO        CLOUDY    32  23  69 SW13      29.87S WCI  22
BIG TROUT LK   FLURRIES   9   5  85 NW12G21   30.13R WCI  -6
PICKLE LAKE    LGT SNOW  12   9  85 N13G22    30.04  DRFTSNOWWCI  -3
DRYDEN         LGT SNOW  16  14  93 N8        30.13R WCI   5
KENORA         LGT SNOW  16  12  86 N12       30.20R DRFTSNOWWCI   3
$$
                *** MANITOBA***

CITY           SKY/WX    TMP DP  RH WIND       PRES   REMARKS
BRANDON        CLOUDY     9   3  78 NW17      30.48R WCI -10
DAUPHIN        FLURRIES  10   3  72 NW9       30.54R WCI  -2
ISLAND LAKE    NOT AVBL
PILOT MOUND      N/A      9   7  92 NW16        N/A  WCI  -9
THE PAS        FLURRIES  -2  -9  71 NW18      30.59S WCI -24
THOMPSON       FLURRIES  -8 -13  77 N12       30.56R WCI -27
WINNIPEG       LGT SNOW  16  12  86 NW21      30.39R DRFTSNOWWCI  -2
LYNN LAKE      CLEAR    -17 -22  76 N9        30.63R WCI -36
CHURCHILL      LGT SNOW  -2  -6  84 NW25G33   30.50R BLWGSNOWWCI -27
GILLAM         FLURRIES  -4  -9  77 NW22      30.47R WCI -28
$$
                ***SASKATCHEWAN***

CITY           SKY/WX    TMP DP  RH WIND       PRES   REMARKS
ESTEVAN        CRYSTALS  -9 -13  84 W10       30.57R WCI -28
KINDERSLEY     CLOUDY    -6  -9  84 W6        30.63S WCI -18
LLOYDMINSTER   CLEAR    -13 -18  77 NW6       30.66F WCI -27
PRINCE ALBERT  FLURRIES  -6 -13  71 NW8       30.67S WCI -21
REGINA         PTCLDY    -8 -11  84 W10       30.61S WCI -26
YORKTON        CLOUDY     3  -2  78 NW13      30.54S WCC1F1C2F2C3F3C4F4C5F5C6F6C7F7C8F8C9F9CaFaCbFbCcFcCdFdCe!



USA.gov is the U.S. government's official web portal to all federal, state and local government web resources and services.